User: anonymous   Login
Location: Prairie Dale
(45.6972°N, 104.5033°W)
Time: 09:30:03
(UTC+00:00)
Language:

QB50P2 - Orbit

View from above orbital plane
View from above orbital plane
View from above satellite
View from above satellite

Ground track
Ground track

The orbit data is extracted from the following two-line orbital elements,

1 40032U 14033Y   22179.76654958  .00001310  00000-0  14178-3 0  9990
2 40032  97.9383 112.5927 0012350  24.7812 335.3996 14.89966029435309
Epoch (UTC): 28 June 2022 18:23:49
Eccentricity: 0.0012350
inclination: 97.9383°
perigee height: 589 km
apogee height: 606 km
right ascension of ascending node: 112.5927°
argument of perigee: 24.7812°
revolutions per day: 14.89966029
mean anomaly at epoch: 335.3996°
orbit number at epoch: 43530

The dashed part of the orbit path shows where the satellite is in the earth's shadow,  

DLR